QPF
0.01 0.01 0.01 0.02 0.03 0.01 0.01 0.00 0.00 0.00 0.00 0.00 0.00 0.00 0.00 0.00 0.00 0.00 0.00 0.00 0.00 0.00 0.00 0.00 0.00 0.00 0.00 0.00 0.00 0.03 0.06 0.08 0.09 0.17 0.24 0.29 0.34 0.35 0.29 0.29 0.34 0.28 0.15 0.07
0.00 0.00 0.00 0.00 0.00 0.00 0.00 0.00 0.00 0.00 0.00 0.00 0.00 0.00 0.00 0.00 0.00 0.00 0.00 0.00 0.00 0.00 0.00 0.00 0.00 0.00 0.00 0.00 0.01 0.03 0.04 0.06 0.11 0.18 0.25 0.34 0.43 0.45 0.41 0.37 0.34 0.29 0.22 0.13
0.00 0.00 0.00 0.00 0.00 0.00 0.00 0.00 0.00 0.00 0.00 0.00 0.00 0.00 0.00 0.00 0.00 0.00 0.00 0.00 0.00 0.00 0.00 0.00 0.00 0.00 0.00 0.00 0.00 0.02 0.04 0.09 0.15 0.21 0.26 0.25 0.29 0.27 0.27 0.25 0.23 0.24 0.21 0.15
0.00 0.00 0.00 0.00 0.00 0.00 0.00 0.00 0.00 0.00 0.00 0.00 0.00 0.00 0.00 0.00 0.00 0.00 0.00 0.00 0.00 0.00 0.00 0.00 0.00 0.00 0.00 0.00 0.00 0.00 0.02 0.04 0.08 0.13 0.14 0.11 0.10 0.09 0.11 0.14 0.15 0.18 0.22 0.21
0.00 0.00 0.00 0.00 0.00 0.00 0.00 0.00 0.00 0.00 0.00 0.00 0.00 0.00 0.00 0.00 0.00 0.00 0.00 0.00 0.00 0.00 0.00 0.00 0.00 0.00 0.00 0.00 0.00 0.00 0.01 0.01 0.02 0.03 0.04 0.05 0.03 0.01 0.04 0.10 0.13 0.16 0.26 0.31
0.00 0.00 0.00 0.00 0.00 0.00 0.00 0.00 0.00 0.00 0.00 0.00 0.00 0.00 0.00 0.00 0.00 0.00 0.00 0.00 0.00 0.00 0.00 0.00 0.00 0.00 0.00 0.00 0.00 0.00 0.00 0.00 0.00 0.01 0.01 0.01 0.01 0.01 0.02 0.06 0.12 0.21 0.31 0.44
0.00 0.00 0.00 0.00 0.00 0.00 0.00 0.00 0.00 0.00 0.00 0.00 0.00 0.00 0.00 0.00 0.00 0.00 0.00 0.00 0.00 0.00 0.00 0.00 0.00 0.00 0.00 0.00 0.00 0.00 0.00 0.00 0.00 0.00 0.00 0.00 0.01 0.01 0.02 0.05 0.12 0.28 0.35 0.49
0.00 0.00 0.00 0.00 0.00 0.00 0.00 0.00 0.00 0.00 0.00 0.00 0.00 0.00 0.00 0.00 0.00 0.00 0.00 0.00 0.00 0.00 0.00 0.00 0.00 0.00 0.00 0.00 0.00 0.00 0.00 0.00 0.00 0.00 0.00 0.00 0.00 0.01 0.02 0.04 0.05 0.21 0.36 0.45
0.00 0.00 0.00 0.00 0.00 0.00 0.00 0.00 0.00 0.00 0.00 0.00 0.00 0.00 0.00 0.00 0.00 0.00 0.00 0.00 0.00 0.00 0.00 0.00 0.00 0.00 0.00 0.00 0.00 0.00 0.00 0.00 0.00 0.00 0.00 0.00 0.00 0.01 0.02 0.02 0.01 0.05 0.17 0.24
0.00 0.00 0.00 0.00 0.00 0.00 0.00 0.00 0.00 0.00 0.00 0.00 0.00 0.00 0.00 0.00 0.00 0.00 0.00 0.00 0.00 0.00 0.00 0.00 0.00 0.00 0.00 0.00 0.00 0.00 0.00 0.00 0.00 0.00 0.00 0.00 0.00 0.00 0.01 0.01 0.00 0.01 0.04 0.07
0.01 0.00 0.00 0.00 0.00 0.01 0.01 0.01 0.02 0.02 0.00 0.00 0.00 0.00 0.00 0.00 0.00 0.00 0.00 0.00 0.00 0.00 0.00 0.00 0.00 0.00 0.00 0.00 0.00 0.00 0.00 0.00 0.00 0.00 0.00 0.00 0.00 0.00 0.00 0.01 0.01 0.00 0.02 0.02
0.02 0.02 0.01 0.01 0.01 0.02 0.05 0.07 0.08 0.07 0.04 0.01 0.00 0.00 0.00 0.00 0.00 0.00 0.01 0.01 0.01 0.01 0.00 0.00 0.00 0.00 0.00 0.00 0.00 0.00 0.00 0.00 0.00 0.00 0.00 0.00 0.00 0.00 0.00 0.01 0.02 0.02 0.02 0.01
0.02 0.04 0.07 0.06 0.03 0.03 0.05 0.06 0.07 0.06 0.04 0.01 0.00 0.00 0.00 0.00 0.00 0.01 0.01 0.02 0.02 0.01 0.00 0.00 0.00 0.00 0.00 0.00 0.00 0.00 0.00 0.00 0.00 0.00 0.00 0.00 0.00 0.00 0.00 0.01 0.03 0.03 0.02 0.01
0.02 0.03 0.05 0.05 0.04 0.02 0.01 0.00 0.00 0.00 0.00 0.00 0.00 0.00 0.00 0.00 0.00 0.00 0.01 0.02 0.02 0.01 0.01 0.00 0.00 0.00 0.00 0.00 0.00 0.00 0.00 0.00 0.00 0.00 0.00 0.00 0.01 0.01 0.00 0.01 0.01 0.03 0.02 0.01
0.02 0.01 0.01 0.01 0.01 0.00 0.00 0.00 0.00 0.00 0.00 0.00 0.00 0.00 0.00 0.01 0.01 0.01 0.01 0.01 0.01 0.01 0.01 0.00 0.00 0.00 0.00 0.00 0.00 0.00 0.01 0.00 0.01 0.01 0.01 0.00 0.01 0.01 0.01 0.01 0.01 0.01 0.02 0.01
0.01 0.00 0.00 0.00 0.00 0.00 0.00 0.00 0.00 0.00 0.00 0.00 0.00 0.00 0.00 0.01 0.01 0.01 0.01 0.01 0.01 0.01 0.00 0.00 0.00 0.00 0.00 0.00 0.00 0.01 0.02 0.02 0.02 0.02 0.02 0.02 0.01 0.01 0.01 0.01 0.02 0.02 0.02 0.02
0.00 0.01 0.00 0.00 0.00 0.00 0.00 0.00 0.00 0.00 0.00 0.00 0.00 0.00 0.00 0.00 0.00 0.00 0.00 0.00 0.00 0.00 0.00 0.00 0.00 0.00 0.00 0.00 0.02 0.04 0.06 0.06 0.07 0.09 0.09 0.06 0.04 0.03 0.02 0.03 0.05 0.06 0.06 0.04
0.00 0.00 0.01 0.01 0.01 0.00 0.00 0.00 0.00 0.00 0.00 0.00 0.00 0.00 0.00 0.00 0.01 0.01 0.00 0.00 0.00 0.00 0.00 0.00 0.00 0.00 0.01 0.02 0.04 0.08 0.11 0.10 0.11 0.18 0.20 0.14 0.07 0.08 0.08 0.08 0.08 0.10 0.08 0.06
0.04 0.02 0.02 0.02 0.01 0.00 0.00 0.00 0.00 0.00 0.00 0.00 0.00 0.00 0.00 0.00 0.01 0.00 0.00 0.00 0.00 0.00 0.00 0.00 0.00 0.00 0.00 0.00 0.01 0.02 0.05 0.08 0.09 0.11 0.17 0.17 0.14 0.15 0.17 0.16 0.16 0.13 0.09 0.08
0.12 0.08 0.06 0.04 0.02 0.01 0.00 0.00 0.00 0.00 0.00 0.00 0.00 0.00 0.00 0.00 0.00 0.00 0.00 0.00 0.00 0.00 0.00 0.00 0.00 0.00 0.00 0.00 0.00 0.00 0.01 0.02 0.05 0.06 0.10 0.15 0.16 0.18 0.21 0.24 0.26 0.18 0.13 0.12
0.08 0.09 0.07 0.05 0.03 0.01 0.00 0.00 0.00 0.00 0.00 0.00 0.00 0.00 0.00 0.00 0.00 0.00 0.00 0.00 0.00 0.00 0.00 0.00 0.00 0.00 0.00 0.00 0.00 0.00 0.00 0.01 0.01 0.02 0.03 0.06 0.10 0.15 0.21 0.24 0.22 0.17 0.14 0.10
0.13 0.18 0.15 0.08 0.04 0.03 0.01 0.01 0.00 0.00 0.00 0.00 0.00 0.00 0.00 0.00 0.00 0.00 0.00 0.00 0.00 0.00 0.00 0.00 0.00 0.00 0.00 0.00 0.00 0.00 0.00 0.00 0.00 0.00 0.01 0.02 0.04 0.06 0.11 0.15 0.17 0.16 0.15 0.10
0.16 0.33 0.36 0.21 0.08 0.03 0.01 0.00 0.00 0.00 0.00 0.00 0.00 0.00 0.00 0.00 0.00 0.00 0.00 0.00 0.00 0.00 0.00 0.00 0.00 0.00 0.00 0.00 0.00 0.00 0.00 0.00 0.00 0.00 0.00 0.00 0.00 0.01 0.04 0.10 0.13 0.14 0.16 0.14
0.05 0.10 0.10 0.09 0.07 0.02 0.00 0.00 0.00 0.00 0.00 0.00 0.00 0.00 0.00 0.00 0.00 0.00 0.00 0.00 0.00 0.00 0.00 0.00 0.00 0.00 0.00 0.00 0.00 0.00 0.00 0.00 0.00 0.00 0.00 0.00 0.00 0.00 0.01 0.03 0.09 0.15 0.14 0.08
0.01 0.01 0.01 0.01 0.01 0.00 0.00 0.00 0.00 0.00 0.00 0.00 0.00 0.00 0.00 0.00 0.00 0.00 0.00 0.00 0.00 0.00 0.00 0.00 0.00 0.00 0.00 0.00 0.00 0.00 0.00 0.00 0.00 0.00 0.00 0.00 0.00 0.00 0.00 0.01 0.05 0.09 0.09 0.04
0.00 0.00 0.00 0.00 0.00 0.00 0.00 0.00 0.00 0.00 0.00 0.00 0.00 0.00 0.00 0.00 0.00 0.00 0.00 0.00 0.00 0.00 0.00 0.00 0.00 0.00 0.00 0.00 0.00 0.00 0.00 0.00 0.00 0.00 0.00 0.00 0.00 0.00 0.00 0.00 0.02 0.03 0.03 0.02
MSLP
1011.92 1012.41 1012.78 1013.03 1013.16 1013.20 1013.17 1013.08 1012.95 1012.75 1012.48 1012.15 1011.76 1011.33 1010.90 1010.50 1010.17 1009.92 1009.78 1009.71 1009.69 1009.68 1009.64 1009.54 1009.38 1009.18 1008.97 1008.82 1008.76 1008.84 1009.09 1009.48 1009.99 1010.55 1011.11 1011.61 1012.02 1012.30 1012.49 1012.61 1012.72 1012.85 1013.06 1013.37
1012.41 1012.78 1013.02 1013.15 1013.20 1013.21 1013.21 1013.21 1013.18 1013.10 1012.94 1012.68 1012.31 1011.85 1011.33 1010.82 1010.38 1010.04 1009.84 1009.75 1009.76 1009.80 1009.83 1009.80 1009.68 1009.49 1009.26 1009.05 1008.92 1008.93 1009.12 1009.48 1009.98 1010.55 1011.13 1011.65 1012.06 1012.33 1012.47 1012.53 1012.55 1012.61 1012.75 1013.01
1012.68 1012.91 1013.01 1013.03 1013.03 1013.05 1013.12 1013.23 1013.35 1013.41 1013.37 1013.18 1012.82 1012.30 1011.69 1011.05 1010.47 1010.02 1009.73 1009.62 1009.65 1009.76 1009.87 1009.92 1009.88 1009.73 1009.51 1009.28 1009.11 1009.07 1009.20 1009.52 1009.98 1010.55 1011.13 1011.65 1012.06 1012.31 1012.42 1012.42 1012.39 1012.39 1012.47 1012.69
1012.75 1012.83 1012.80 1012.74 1012.72 1012.78 1012.95 1013.21 1013.49 1013.71 1013.79 1013.67 1013.31 1012.73 1012.00 1011.21 1010.47 1009.87 1009.48 1009.32 1009.35 1009.50 1009.70 1009.85 1009.91 1009.83 1009.66 1009.45 1009.26 1009.18 1009.27 1009.54 1009.97 1010.51 1011.07 1011.58 1011.97 1012.22 1012.30 1012.28 1012.22 1012.18 1012.23 1012.41
1012.69 1012.61 1012.47 1012.35 1012.34 1012.47 1012.77 1013.19 1013.65 1014.03 1014.23 1014.17 1013.81 1013.16 1012.29 1011.34 1010.42 1009.66 1009.14 1008.90 1008.90 1009.09 1009.35 1009.60 1009.76 1009.78 1009.69 1009.52 1009.35 1009.26 1009.31 1009.53 1009.92 1010.41 1010.94 1011.42 1011.80 1012.04 1012.13 1012.10 1012.03 1011.99 1012.03 1012.19
1012.60 1012.39 1012.15 1011.99 1011.99 1012.21 1012.64 1013.22 1013.85 1014.39 1014.70 1014.70 1014.32 1013.59 1012.60 1011.48 1010.38 1009.45 1008.79 1008.44 1008.40 1008.58 1008.90 1009.23 1009.48 1009.61 1009.61 1009.50 1009.37 1009.28 1009.32 1009.50 1009.83 1010.28 1010.76 1011.21 1011.58 1011.80 1011.90 1011.90 1011.84 1011.81 1011.86 1012.03
1012.58 1012.24 1011.93 1011.75 1011.79 1012.09 1012.63 1013.36 1014.12 1014.78 1015.18 1015.21 1014.82 1014.03 1012.92 1011.66 1010.39 1009.30 1008.49 1008.03 1007.91 1008.08 1008.41 1008.80 1009.14 1009.36 1009.45 1009.42 1009.34 1009.28 1009.31 1009.46 1009.75 1010.14 1010.57 1010.98 1011.33 1011.55 1011.66 1011.68 1011.67 1011.67 1011.75 1011.93
1012.69 1012.27 1011.91 1011.72 1011.78 1012.13 1012.76 1013.58 1014.44 1015.17 1015.62 1015.67 1015.26 1014.41 1013.23 1011.84 1010.46 1009.23 1008.30 1007.73 1007.53 1007.65 1007.98 1008.40 1008.79 1009.09 1009.26 1009.32 1009.29 1009.27 1009.30 1009.44 1009.68 1010.03 1010.41 1010.79 1011.10 1011.33 1011.46 1011.51 1011.53 1011.57 1011.68 1011.90
1012.96 1012.48 1012.09 1011.90 1011.97 1012.35 1013.01 1013.86 1014.74 1015.49 1015.95 1015.99 1015.56 1014.68 1013.45 1012.00 1010.54 1009.23 1008.21 1007.55 1007.28 1007.34 1007.64 1008.05 1008.48 1008.83 1009.06 1009.18 1009.22 1009.24 1009.30 1009.43 1009.65 1009.96 1010.30 1010.64 1010.94 1011.16 1011.30 1011.39 1011.44 1011.53 1011.67 1011.90
1013.34 1012.85 1012.46 1012.26 1012.32 1012.69 1013.32 1014.13 1014.97 1015.67 1016.08 1016.08 1015.63 1014.74 1013.49 1012.04 1010.57 1009.23 1008.17 1007.47 1007.14 1007.14 1007.39 1007.77 1008.19 1008.56 1008.84 1009.01 1009.11 1009.18 1009.27 1009.41 1009.63 1009.91 1010.23 1010.55 1010.83 1011.05 1011.21 1011.31 1011.41 1011.52 1011.68 1011.92
1013.77 1013.31 1012.93 1012.73 1012.77 1013.08 1013.63 1014.33 1015.05 1015.64 1015.95 1015.89 1015.40 1014.51 1013.29 1011.89 1010.46 1009.16 1008.11 1007.40 1007.03 1006.98 1007.17 1007.51 1007.90 1008.27 1008.56 1008.77 1008.92 1009.04 1009.17 1009.35 1009.58 1009.86 1010.17 1010.48 1010.76 1010.98 1011.15 1011.28 1011.39 1011.52 1011.70 1011.93
1014.14 1013.74 1013.40 1013.21 1013.22 1013.45 1013.87 1014.41 1014.96 1015.37 1015.54 1015.38 1014.85 1013.97 1012.81 1011.49 1010.16 1008.94 1007.96 1007.27 1006.89 1006.80 1006.95 1007.23 1007.57 1007.91 1008.20 1008.44 1008.62 1008.79 1008.97 1009.19 1009.45 1009.75 1010.07 1010.38 1010.66 1010.89 1011.07 1011.22 1011.36 1011.50 1011.68 1011.91
1014.40 1014.08 1013.79 1013.61 1013.58 1013.72 1013.99 1014.34 1014.67 1014.89 1014.89 1014.60 1014.02 1013.15 1012.06 1010.85 1009.64 1008.55 1007.66 1007.03 1006.67 1006.57 1006.66 1006.89 1007.17 1007.47 1007.75 1008.00 1008.21 1008.42 1008.65 1008.91 1009.21 1009.53 1009.87 1010.19 1010.49 1010.73 1010.94 1011.11 1011.27 1011.43 1011.61 1011.82
1014.51 1014.27 1014.04 1013.89 1013.83 1013.87 1013.99 1014.14 1014.25 1014.24 1014.05 1013.63 1012.98 1012.11 1011.09 1010.01 1008.94 1007.99 1007.22 1006.67 1006.36 1006.25 1006.31 1006.49 1006.73 1006.98 1007.24 1007.48 1007.72 1007.96 1008.23 1008.53 1008.85 1009.21 1009.56 1009.90 1010.21 1010.48 1010.71 1010.91 1011.09 1011.27 1011.46 1011.67
1014.47 1014.31 1014.15 1014.02 1013.94 1013.89 1013.87 1013.84 1013.73 1013.51 1013.14 1012.59 1011.86 1011.00 1010.04 1009.06 1008.14 1007.33 1006.69 1006.24 1005.98 1005.89 1005.94 1006.08 1006.28 1006.50 1006.73 1006.96 1007.21 1007.47 1007.76 1008.08 1008.43 1008.79 1009.16 1009.51 1009.83 1010.11 1010.37 1010.59 1010.80 1011.01 1011.22 1011.44
1014.35 1014.25 1014.14 1014.04 1013.94 1013.83 1013.69 1013.49 1013.20 1012.79 1012.25 1011.58 1010.79 1009.92 1009.02 1008.14 1007.34 1006.67 1006.16 1005.80 1005.61 1005.55 1005.60 1005.73 1005.90 1006.10 1006.31 1006.53 1006.77 1007.04 1007.33 1007.66 1008.00 1008.36 1008.71 1009.05 1009.37 1009.66 1009.93 1010.18 1010.42 1010.66 1010.90 1011.14
1014.22 1014.15 1014.08 1013.99 1013.88 1013.71 1013.48 1013.16 1012.72 1012.17 1011.50 1010.72 1009.88 1009.01 1008.15 1007.36 1006.67 1006.12 1005.71 1005.46 1005.33 1005.32 1005.40 1005.52 1005.69 1005.87 1006.07 1006.28 1006.51 1006.76 1007.04 1007.34 1007.65 1007.98 1008.29 1008.60 1008.90 1009.17 1009.44 1009.71 1009.98 1010.25 1010.53 1010.80
1014.18 1014.09 1014.02 1013.92 1013.79 1013.59 1013.29 1012.88 1012.34 1011.69 1010.93 1010.09 1009.22 1008.35 1007.53 1006.81 1006.21 1005.76 1005.45 1005.28 1005.22 1005.26 1005.37 1005.52 1005.69 1005.87 1006.07 1006.27 1006.48 1006.71 1006.95 1007.20 1007.46 1007.72 1007.97 1008.22 1008.47 1008.71 1008.97 1009.23 1009.52 1009.82 1010.12 1010.43
1014.27 1014.13 1014.02 1013.89 1013.72 1013.48 1013.14 1012.68 1012.08 1011.37 1010.57 1009.70 1008.82 1007.97 1007.19 1006.53 1006.01 1005.63 1005.40 1005.30 1005.32 1005.41 1005.55 1005.73 1005.92 1006.11 1006.31 1006.50 1006.69 1006.88 1007.08 1007.26 1007.45 1007.62 1007.80 1007.97 1008.15 1008.34 1008.56 1008.82 1009.10 1009.41 1009.74 1010.07
1014.50 1014.28 1014.09 1013.91 1013.69 1013.41 1013.03 1012.53 1011.91 1011.18 1010.37 1009.51 1008.65 1007.83 1007.10 1006.50 1006.04 1005.73 1005.57 1005.53 1005.59 1005.72 1005.91 1006.12 1006.33 1006.54 1006.74 1006.92 1007.09 1007.25 1007.39 1007.51 1007.61 1007.70 1007.78 1007.87 1007.97 1008.11 1008.28 1008.50 1008.77 1009.08 1009.41 1009.75
1014.86 1014.53 1014.24 1013.97 1013.68 1013.34 1012.93 1012.41 1011.79 1011.08 1010.29 1009.46 1008.64 1007.88 1007.20 1006.66 1006.25 1005.99 1005.88 1005.88 1005.98 1006.16 1006.37 1006.60 1006.84 1007.07 1007.27 1007.45 1007.60 1007.72 1007.81 1007.87 1007.90 1007.91 1007.92 1007.93 1007.96 1008.03 1008.15 1008.32 1008.56 1008.84 1009.16 1009.50
1015.29 1014.84 1014.43 1014.05 1013.68 1013.28 1012.83 1012.29 1011.68 1010.99 1010.24 1009.47 1008.71 1008.01 1007.39 1006.90 1006.55 1006.34 1006.26 1006.30 1006.42 1006.62 1006.85 1007.10 1007.35 1007.58 1007.79 1007.96 1008.10 1008.19 1008.25 1008.26 1008.25 1008.21 1008.15 1008.10 1008.08 1008.09 1008.16 1008.30 1008.49 1008.74 1009.03 1009.33
1015.73 1015.15 1014.63 1014.14 1013.67 1013.19 1012.69 1012.14 1011.53 1010.86 1010.16 1009.45 1008.76 1008.13 1007.58 1007.15 1006.85 1006.68 1006.63 1006.68 1006.83 1007.03 1007.27 1007.52 1007.77 1008.00 1008.20 1008.37 1008.49 1008.58 1008.62 1008.61 1008.58 1008.51 1008.43 1008.36 1008.30 1008.28 1008.32 1008.41 1008.57 1008.77 1009.01 1009.28
1016.10 1015.43 1014.79 1014.19 1013.62 1013.07 1012.51 1011.92 1011.31 1010.67 1010.01 1009.36 1008.74 1008.17 1007.69 1007.32 1007.07 1006.93 1006.91 1006.97 1007.12 1007.32 1007.55 1007.79 1008.03 1008.26 1008.45 1008.61 1008.73 1008.82 1008.86 1008.86 1008.83 1008.78 1008.71 1008.64 1008.58 1008.56 1008.58 1008.64 1008.76 1008.92 1009.11 1009.32
1016.38 1015.62 1014.89 1014.20 1013.54 1012.90 1012.28 1011.66 1011.03 1010.40 1009.77 1009.16 1008.60 1008.10 1007.68 1007.36 1007.16 1007.05 1007.05 1007.13 1007.28 1007.47 1007.69 1007.91 1008.14 1008.34 1008.52 1008.67 1008.80 1008.89 1008.95 1008.98 1008.98 1008.96 1008.93 1008.90 1008.88 1008.87 1008.89 1008.95 1009.03 1009.15 1009.30 1009.46
1016.52 1015.71 1014.92 1014.15 1013.41 1012.71 1012.02 1011.35 1010.70 1010.06 1009.45 1008.87 1008.35 1007.90 1007.53 1007.26 1007.10 1007.03 1007.05 1007.15 1007.29 1007.48 1007.68 1007.89 1008.09 1008.28 1008.44 1008.59 1008.71 1008.82 1008.91 1008.97 1009.03 1009.07 1009.10 1009.12 1009.15 1009.18 1009.22 1009.28 1009.35 1009.45 1009.55 1009.66
Thickness
5737 5728 5722 5728 5732 5737 5738 5735 5734 5745 5762 5757 5752 5755 5768 5777 5774 5772 5768 5765 5765 5768 5771 5773 5774 5775 5774 5771 5767 5762 5756 5751 5746 5739 5733 5729 5727 5726 5722 5719 5717 5716 5715 5713
5719 5714 5728 5735 5736 5734 5730 5725 5727 5740 5756 5751 5746 5749 5762 5770 5771 5772 5768 5763 5761 5761 5764 5766 5767 5767 5766 5764 5760 5756 5752 5747 5741 5736 5732 5729 5727 5724 5720 5716 5714 5713 5713 5712
5707 5721 5734 5731 5727 5724 5724 5721 5723 5728 5741 5745 5740 5737 5749 5763 5769 5770 5768 5763 5758 5756 5756 5757 5758 5759 5758 5757 5755 5751 5747 5742 5737 5733 5728 5724 5721 5718 5715 5712 5710 5711 5710 5709
5706 5719 5722 5721 5721 5723 5714 5731 5728 5726 5719 5712 5726 5707 5733 5745 5751 5758 5758 5756 5754 5753 5752 5751 5752 5752 5752 5751 5749 5745 5741 5737 5733 5728 5722 5718 5714 5711 5710 5709 5707 5707 5707 5706
5702 5714 5715 5713 5720 5724 5719 5729 5723 5720 5713 5706 5713 5705 5718 5737 5741 5749 5751 5752 5750 5750 5749 5749 5748 5748 5748 5746 5743 5739 5736 5731 5727 5723 5718 5712 5708 5707 5706 5705 5703 5703 5702 5700
5707 5718 5720 5718 5726 5726 5723 5718 5710 5701 5696 5688 5706 5700 5705 5725 5738 5746 5748 5748 5748 5748 5747 5747 5746 5744 5742 5740 5736 5731 5727 5723 5720 5716 5711 5708 5704 5703 5701 5700 5698 5697 5696 5694
5691 5705 5718 5724 5714 5717 5713 5693 5672 5673 5667 5676 5700 5698 5706 5737 5744 5746 5747 5746 5746 5746 5744 5742 5740 5737 5735 5732 5729 5724 5719 5716 5712 5709 5706 5703 5701 5700 5698 5696 5694 5692 5690 5688
5669 5677 5704 5712 5708 5702 5699 5690 5669 5660 5659 5671 5691 5689 5713 5740 5748 5751 5750 5747 5744 5743 5742 5740 5739 5736 5731 5727 5723 5719 5715 5711 5707 5704 5702 5699 5697 5695 5694 5692 5690 5688 5687 5686
5666 5673 5700 5710 5714 5707 5694 5689 5695 5673 5667 5666 5676 5691 5715 5739 5743 5744 5743 5740 5737 5739 5740 5739 5738 5734 5729 5723 5720 5716 5712 5707 5703 5700 5697 5694 5692 5691 5690 5688 5686 5684 5682 5681
5666 5662 5682 5697 5710 5706 5700 5692 5674 5666 5654 5651 5666 5678 5692 5719 5726 5733 5734 5733 5733 5735 5737 5738 5736 5732 5726 5722 5718 5713 5708 5704 5701 5698 5694 5691 5689 5688 5687 5684 5681 5679 5677 5676
5662 5657 5665 5678 5679 5678 5686 5682 5671 5661 5660 5649 5650 5672 5707 5713 5719 5721 5725 5727 5728 5730 5732 5733 5733 5729 5724 5719 5714 5708 5703 5699 5696 5694 5691 5688 5685 5683 5681 5679 5678 5675 5673 5671
5656 5648 5648 5662 5677 5682 5678 5675 5665 5657 5655 5652 5648 5669 5717 5716 5718 5719 5721 5722 5725 5727 5728 5729 5728 5724 5719 5715 5709 5703 5698 5694 5692 5690 5687 5684 5681 5678 5675 5674 5672 5671 5668 5667
5653 5645 5638 5647 5656 5667 5668 5668 5665 5659 5650 5641 5639 5667 5710 5713 5716 5718 5718 5719 5721 5724 5726 5726 5724 5720 5716 5712 5706 5700 5695 5692 5690 5686 5683 5680 5678 5675 5672 5670 5668 5666 5663 5662
5651 5638 5635 5631 5640 5652 5654 5662 5660 5652 5641 5639 5647 5668 5693 5703 5709 5712 5714 5716 5719 5721 5722 5722 5720 5718 5714 5708 5703 5698 5694 5690 5687 5684 5680 5678 5675 5673 5670 5667 5664 5661 5659 5657
5639 5629 5634 5639 5648 5649 5651 5657 5659 5650 5650 5644 5658 5669 5689 5700 5705 5709 5712 5715 5717 5719 5720 5720 5718 5714 5709 5704 5700 5696 5692 5688 5685 5681 5678 5676 5673 5670 5667 5663 5661 5658 5655 5654
5630 5626 5629 5632 5643 5643 5645 5657 5658 5655 5656 5655 5661 5673 5695 5701 5700 5700 5706 5710 5712 5715 5717 5718 5715 5711 5705 5701 5696 5692 5689 5685 5681 5677 5675 5672 5669 5665 5662 5660 5657 5654 5651 5650
5620 5619 5618 5616 5628 5632 5633 5652 5655 5655 5657 5655 5654 5675 5688 5688 5691 5697 5704 5707 5709 5713 5715 5715 5711 5707 5702 5698 5693 5689 5687 5682 5677 5673 5670 5667 5663 5661 5658 5655 5651 5650 5648 5647
5615 5613 5610 5611 5618 5615 5640 5658 5656 5652 5656 5658 5660 5672 5682 5687 5693 5699 5704 5705 5708 5711 5713 5711 5707 5702 5697 5694 5689 5685 5682 5677 5673 5669 5665 5662 5659 5656 5654 5650 5647 5645 5643 5642
5613 5609 5605 5604 5609 5620 5639 5651 5652 5646 5648 5659 5657 5670 5682 5689 5692 5696 5706 5707 5707 5707 5705 5701 5698 5693 5688 5684 5682 5678 5674 5671 5667 5663 5659 5656 5654 5651 5648 5644 5642 5640 5637 5635
5608 5608 5605 5605 5607 5612 5630 5646 5656 5648 5644 5658 5658 5663 5674 5682 5675 5685 5699 5698 5697 5696 5695 5692 5688 5685 5680 5675 5673 5669 5665 5662 5658 5655 5652 5650 5648 5647 5644 5641 5636 5634 5631 5630
5596 5600 5601 5603 5607 5615 5627 5641 5649 5627 5624 5645 5653 5660 5668 5672 5678 5685 5689 5690 5689 5687 5685 5683 5679 5674 5669 5667 5664 5659 5655 5651 5648 5646 5644 5642 5641 5640 5639 5635 5631 5628 5625 5623
5586 5593 5598 5601 5602 5605 5622 5630 5624 5620 5632 5640 5650 5659 5668 5675 5677 5681 5682 5682 5681 5678 5675 5672 5668 5664 5661 5659 5656 5651 5646 5642 5638 5636 5634 5632 5631 5630 5629 5625 5621 5619 5616 5614
5573 5574 5577 5588 5599 5609 5618 5623 5626 5629 5633 5641 5649 5657 5667 5673 5672 5673 5674 5674 5673 5671 5667 5664 5661 5658 5654 5651 5648 5643 5639 5635 5631 5627 5624 5622 5621 5619 5617 5614 5610 5607 5606 5605
5562 5566 5569 5580 5598 5605 5617 5626 5630 5633 5637 5644 5650 5657 5666 5672 5673 5670 5669 5669 5667 5664 5661 5658 5655 5651 5648 5645 5642 5637 5633 5629 5625 5621 5618 5615 5612 5609 5605 5602 5599 5595 5593 5594
5548 5555 5562 5573 5590 5606 5619 5623 5628 5636 5643 5649 5654 5660 5667 5673 5674 5670 5668 5667 5664 5661 5657 5654 5651 5648 5645 5642 5638 5634 5629 5624 5620 5616 5613 5610 5606 5602 5597 5593 5588 5585 5583 5585
5542 5548 5555 5567 5582 5590 5606 5619 5626 5633 5642 5648 5654 5663 5671 5675 5676 5673 5669 5667 5662 5658 5654 5651 5649 5647 5644 5641 5637 5632 5627 5622 5617 5613 5610 5606 5603 5599 5594 5590 5584 5579 5579 5581